AEZ2115 LIRF-LICB

Flight info

Callsign AEZ2115
Flight time 0h 58m
Altitude 35000
Route RIFFI DCT BEROL DCT ROSAS DCT LIBRO
Aircraft A319/M-SDE3FGHIRWY/LB1

Departure

Time 2026-05-07 17:05
Airport Rome–Fiumicino Leonardo da Vinci International Airport (LIRF)

Arrival

Time 2026-05-07 18:03
Airport Comiso Airport (LICB)
Time Latitude Longitude Altitude Speed Heading
2026-05-07 16:40 41.80009 12.26564 14 ft 0 kts 250°
2026-05-07 17:00 41.80007 12.26558 14 ft 3 kts 250°
2026-05-07 17:00 41.80015 12.26515 15 ft 8 kts 308°
2026-05-07 17:00 41.80077 12.26468 14 ft 13 kts 339°
2026-05-07 17:00 41.80121 12.26374 14 ft 15 kts 261°
2026-05-07 17:01 41.80144 12.26221 16 ft 20 kts 296°
2026-05-07 17:01 41.80198 12.26071 14 ft 0 kts 295°
2026-05-07 17:01 41.80207 12.26056 15 ft 5 kts 322°
2026-05-07 17:01 41.80255 12.26062 14 ft 10 kts 22°
2026-05-07 17:02 41.80335 12.26109 14 ft 15 kts 25°
2026-05-07 17:02 41.80444 12.26173 17 ft 19 kts 11°
2026-05-07 17:02 41.80545 12.26290 16 ft 23 kts 70°
2026-05-07 17:02 41.80606 12.26515 18 ft 27 kts 70°
2026-05-07 17:03 41.80671 12.26753 15 ft 27 kts 71°
2026-05-07 17:03 41.80730 12.26974 13 ft 24 kts 70°
2026-05-07 17:03 41.80808 12.27041 13 ft 18 kts 345°
2026-05-07 17:03 41.80908 12.26994 13 ft 15 kts 341°
2026-05-07 17:04 41.80962 12.26940 12 ft 5 kts 254°
2026-05-07 17:04 41.80961 12.26938 12 ft 0 kts 251°
2026-05-07 17:04 41.80959 12.26929 13 ft 8 kts 250°
2026-05-07 17:05 41.80907 12.26741 13 ft 59 kts 250°
2026-05-07 17:05 41.80685 12.25922 19 ft 125 kts 249°
2026-05-07 17:05 41.80326 12.24602 117 ft 165 kts 253°
2026-05-07 17:05 41.79988 12.23213 904 ft 153 kts 255°
2026-05-07 17:06 41.79594 12.21850 1498 ft 160 kts 249°
2026-05-07 17:06 41.79055 12.20511 1997 ft 174 kts 234°
2026-05-07 17:06 41.78156 12.19268 2323 ft 197 kts 221°
2026-05-07 17:06 41.77034 12.18075 2651 ft 214 kts 217°
2026-05-07 17:07 41.75818 12.16976 2447 ft 212 kts 203°
2026-05-07 17:07 41.74344 12.16669 2440 ft 232 kts 173°
2026-05-07 17:07 41.72646 12.17008 2863 ft 257 kts 173°
2026-05-07 17:07 41.70829 12.17144 3721 ft 263 kts 177°
2026-05-07 17:08 41.68978 12.17190 4720 ft 265 kts 178°
2026-05-07 17:08 41.67142 12.17201 5826 ft 262 kts 179°
2026-05-07 17:08 41.65274 12.17215 6592 ft 273 kts 178°
2026-05-07 17:08 41.63375 12.17290 7495 ft 275 kts 178°
2026-05-07 17:09 41.61482 12.17388 8392 ft 278 kts 178°
2026-05-07 17:09 41.59539 12.17491 9300 ft 280 kts 179°
2026-05-07 17:09 41.57582 12.17590 10177 ft 284 kts 179°
2026-05-07 17:09 41.55527 12.17595 10506 ft 307 kts 187°
2026-05-07 17:10 41.53347 12.17154 10860 ft 326 kts 186°
2026-05-07 17:10 41.51057 12.17251 11532 ft 334 kts 172°
2026-05-07 17:10 41.48810 12.18140 12295 ft 341 kts 157°
2026-05-07 17:10 41.46774 12.19819 13048 ft 349 kts 142°
2026-05-07 17:11 41.45036 12.22121 13781 ft 355 kts 136°
2026-05-07 17:11 41.43321 12.24513 14439 ft 359 kts 136°
2026-05-07 17:11 41.41605 12.26901 15083 ft 363 kts 136°
2026-05-07 17:11 41.39850 12.29333 15732 ft 367 kts 137°
2026-05-07 17:12 41.38067 12.31790 16377 ft 371 kts 137°
2026-05-07 17:12 41.36258 12.34273 17016 ft 375 kts 138°
2026-05-07 17:12 41.34433 12.36777 17649 ft 379 kts 138°
2026-05-07 17:12 41.32585 12.39307 18274 ft 383 kts 138°
2026-05-07 17:13 41.30716 12.41865 18793 ft 387 kts 138°
2026-05-07 17:13 41.28828 12.44450 19332 ft 392 kts 138°
2026-05-07 17:13 41.26923 12.47063 19852 ft 397 kts 138°
2026-05-07 17:13 41.25015 12.49681 20356 ft 401 kts 138°
2026-05-07 17:14 41.22919 12.52116 20846 ft 402 kts 148°
2026-05-07 17:14 41.20530 12.54023 21343 ft 401 kts 159°
2026-05-07 17:14 41.17935 12.55385 21848 ft 402 kts 165°
2026-05-07 17:14 41.15287 12.56637 22347 ft 406 kts 165°
2026-05-07 17:15 41.12608 12.57908 22849 ft 411 kts 165°
2026-05-07 17:15 41.09901 12.59195 23331 ft 416 kts 165°
2026-05-07 17:15 41.07166 12.60498 23743 ft 419 kts 165°
2026-05-07 17:15 41.04454 12.61795 24191 ft 421 kts 165°
2026-05-07 17:16 41.01694 12.63116 24654 ft 422 kts 165°
2026-05-07 17:16 40.98926 12.64439 25104 ft 424 kts 165°
2026-05-07 17:16 40.96143 12.65768 25545 ft 425 kts 165°
2026-05-07 17:16 40.93353 12.67099 25977 ft 427 kts 165°
2026-05-07 17:17 40.90555 12.68429 26406 ft 428 kts 165°
2026-05-07 17:17 40.87741 12.69762 26833 ft 430 kts 166°
2026-05-07 17:17 40.84919 12.71097 27238 ft 432 kts 166°
2026-05-07 17:17 40.82119 12.72421 27605 ft 435 kts 166°
2026-05-07 17:18 40.79262 12.73767 27997 ft 437 kts 166°
2026-05-07 17:18 40.76388 12.75124 28385 ft 440 kts 166°
2026-05-07 17:18 40.73505 12.76486 28769 ft 442 kts 166°
2026-05-07 17:18 40.70603 12.77855 29118 ft 444 kts 166°
2026-05-07 17:19 40.67684 12.79226 29474 ft 446 kts 166°
2026-05-07 17:19 40.64755 12.80602 29828 ft 449 kts 166°
2026-05-07 17:19 40.61807 12.81988 30116 ft 451 kts 167°
2026-05-07 17:19 40.58846 12.83379 30386 ft 453 kts 167°
2026-05-07 17:20 40.55864 12.84779 30679 ft 455 kts 168°
2026-05-07 17:20 40.52918 12.86163 30956 ft 457 kts 168°
2026-05-07 17:20 40.49917 12.87569 31238 ft 459 kts 168°
2026-05-07 17:20 40.46925 12.88970 31550 ft 459 kts 169°
2026-05-07 17:21 40.43926 12.90379 31970 ft 457 kts 169°
2026-05-07 17:21 40.40931 12.91782 32385 ft 455 kts 170°
2026-05-07 17:21 40.37956 12.93168 32815 ft 452 kts 171°
2026-05-07 17:21 40.35000 12.94545 33286 ft 449 kts 172°
2026-05-07 17:22 40.32062 12.95913 33717 ft 447 kts 172°
2026-05-07 17:22 40.29174 12.97260 34114 ft 446 kts 173°
2026-05-07 17:22 40.26257 12.98620 34482 ft 444 kts 173°
2026-05-07 17:22 40.23359 12.99970 34856 ft 442 kts 173°
2026-05-07 17:23 40.20465 13.01317 35215 ft 439 kts 174°
2026-05-07 17:23 40.17586 13.02584 35564 ft 435 kts 175°
2026-05-07 17:23 40.14713 13.03751 35854 ft 431 kts 176°
2026-05-07 17:23 40.11848 13.04857 35915 ft 426 kts 177°
2026-05-07 17:24 40.06223 13.06979 35922 ft 423 kts 178°
2026-05-07 17:24 40.00581 13.09148 35921 ft 423 kts 177°
2026-05-07 17:25 39.94944 13.11370 35913 ft 423 kts 177°
2026-05-07 17:25 39.89315 13.13596 35888 ft 423 kts 177°
2026-05-07 17:26 39.83711 13.15800 35892 ft 424 kts 177°
2026-05-07 17:26 39.78081 13.18006 35889 ft 424 kts 177°
2026-05-07 17:27 39.72425 13.20220 35902 ft 424 kts 177°
2026-05-07 17:27 39.66766 13.22435 35881 ft 424 kts 177°
2026-05-07 17:28 39.61150 13.24630 35888 ft 424 kts 177°
2026-05-07 17:28 39.55494 13.26829 35894 ft 424 kts 177°
2026-05-07 17:29 39.49842 13.29021 35892 ft 424 kts 177°
2026-05-07 17:29 39.44183 13.31213 35872 ft 424 kts 177°
2026-05-07 17:30 39.38524 13.33407 35872 ft 425 kts 176°
2026-05-07 17:30 39.32893 13.35594 35874 ft 425 kts 176°
2026-05-07 17:31 39.27224 13.37793 35880 ft 425 kts 177°
2026-05-07 17:31 39.21551 13.39969 35851 ft 426 kts 176°
2026-05-07 17:32 39.15859 13.42154 35855 ft 427 kts 176°
2026-05-07 17:32 39.10191 13.44334 35859 ft 428 kts 176°
2026-05-07 17:33 39.04479 13.46528 35857 ft 428 kts 176°
2026-05-07 17:33 38.98775 13.48711 35841 ft 429 kts 176°
2026-05-07 17:34 38.93044 13.50896 35844 ft 432 kts 176°
2026-05-07 17:34 38.87272 13.53092 35850 ft 433 kts 176°
2026-05-07 17:35 38.84457 13.54485 35853 ft 448 kts 166°
2026-05-07 17:35 38.81707 13.56483 35855 ft 457 kts 161°
2026-05-07 17:35 38.76243 13.60680 35834 ft 457 kts 161°
2026-05-07 17:36 38.70788 13.64864 35845 ft 457 kts 161°
2026-05-07 17:36 38.65328 13.69043 35849 ft 457 kts 161°
2026-05-07 17:37 38.59866 13.73204 35856 ft 457 kts 161°
2026-05-07 17:37 38.54444 13.77330 35859 ft 457 kts 161°
2026-05-07 17:38 38.48986 13.81473 35835 ft 457 kts 161°
2026-05-07 17:38 38.43515 13.85618 35835 ft 457 kts 161°
2026-05-07 17:39 38.38033 13.89763 35823 ft 460 kts 161°
2026-05-07 17:39 38.35275 13.91848 35319 ft 462 kts 160°
2026-05-07 17:39 38.32515 13.93931 33835 ft 472 kts 160°
2026-05-07 17:40 38.29669 13.96074 32419 ft 477 kts 159°
2026-05-07 17:40 38.26829 13.98221 31384 ft 471 kts 158°
2026-05-07 17:40 38.24037 14.00337 30466 ft 463 kts 158°
2026-05-07 17:40 38.21305 14.02408 29703 ft 452 kts 158°
2026-05-07 17:41 38.18652 14.04420 29144 ft 436 kts 158°
2026-05-07 17:41 38.16094 14.06356 28607 ft 421 kts 158°
2026-05-07 17:41 38.13611 14.08224 28081 ft 408 kts 159°
2026-05-07 17:41 38.11199 14.10034 27577 ft 397 kts 159°
2026-05-07 17:42 38.08878 14.11769 27096 ft 388 kts 159°
2026-05-07 17:42 38.06552 14.13498 26629 ft 387 kts 159°
2026-05-07 17:42 38.04233 14.15214 26156 ft 385 kts 159°
2026-05-07 17:42 38.01919 14.16928 25704 ft 385 kts 158°
2026-05-07 17:43 37.99614 14.18640 25252 ft 384 kts 158°
2026-05-07 17:43 37.97311 14.20356 24813 ft 384 kts 157°
2026-05-07 17:43 37.95013 14.22073 24355 ft 383 kts 157°
2026-05-07 17:43 37.92731 14.23781 23922 ft 379 kts 156°
2026-05-07 17:44 37.90465 14.25474 23479 ft 377 kts 156°
2026-05-07 17:44 37.88237 14.27133 22989 ft 375 kts 156°
2026-05-07 17:44 37.85996 14.28798 22552 ft 372 kts 156°
2026-05-07 17:44 37.83778 14.30448 22102 ft 369 kts 156°
2026-05-07 17:45 37.81570 14.32086 21658 ft 367 kts 156°
2026-05-07 17:45 37.79374 14.33714 21218 ft 365 kts 156°
2026-05-07 17:45 37.77183 14.35338 20750 ft 364 kts 156°
2026-05-07 17:45 37.75002 14.36956 20302 ft 363 kts 156°
2026-05-07 17:46 37.72825 14.38568 19849 ft 363 kts 156°
2026-05-07 17:46 37.70647 14.40181 19390 ft 363 kts 156°
2026-05-07 17:46 37.68498 14.41771 18937 ft 363 kts 156°
2026-05-07 17:46 37.66322 14.43382 18474 ft 363 kts 156°
2026-05-07 17:47 37.64144 14.44989 17990 ft 362 kts 156°
2026-05-07 17:47 37.61887 14.46292 17537 ft 353 kts 168°
2026-05-07 17:47 37.59538 14.47014 17108 ft 344 kts 177°
2026-05-07 17:47 37.57186 14.47486 16689 ft 341 kts 177°
2026-05-07 17:48 37.54847 14.47965 16270 ft 339 kts 177°
2026-05-07 17:48 37.52523 14.48445 15865 ft 337 kts 176°
2026-05-07 17:48 37.50213 14.48925 15460 ft 335 kts 176°
2026-05-07 17:48 37.47916 14.49398 15052 ft 334 kts 176°
2026-05-07 17:49 37.45655 14.49861 14650 ft 333 kts 176°
2026-05-07 17:49 37.43372 14.50328 14242 ft 332 kts 176°
2026-05-07 17:49 37.41095 14.50791 13834 ft 331 kts 176°
2026-05-07 17:49 37.38829 14.51251 13396 ft 329 kts 176°
2026-05-07 17:50 37.36579 14.51710 12974 ft 327 kts 176°
2026-05-07 17:50 37.34343 14.52169 12564 ft 324 kts 176°
2026-05-07 17:50 37.32125 14.52622 12156 ft 321 kts 176°
2026-05-07 17:50 37.29953 14.53064 11744 ft 319 kts 176°
2026-05-07 17:51 37.27765 14.53509 11335 ft 318 kts 176°
2026-05-07 17:51 37.25593 14.53952 10931 ft 315 kts 176°
2026-05-07 17:51 37.23440 14.54391 10518 ft 312 kts 176°
2026-05-07 17:51 37.21304 14.54830 10157 ft 309 kts 176°
2026-05-07 17:52 37.19223 14.55261 10035 ft 298 kts 176°
2026-05-07 17:52 37.17204 14.55678 9819 ft 291 kts 176°
2026-05-07 17:52 37.15222 14.56082 9597 ft 290 kts 176°
2026-05-07 17:52 37.13219 14.56484 9172 ft 290 kts 176°
2026-05-07 17:53 37.11262 14.56878 8803 ft 287 kts 176°
2026-05-07 17:53 37.09289 14.57273 8380 ft 287 kts 176°
2026-05-07 17:53 37.07322 14.57664 7999 ft 286 kts 176°
2026-05-07 17:53 37.05366 14.58056 7587 ft 284 kts 175°
2026-05-07 17:54 37.03422 14.58451 7173 ft 282 kts 176°
2026-05-07 17:54 37.01487 14.58801 6770 ft 278 kts 183°
2026-05-07 17:54 36.99599 14.58593 6382 ft 268 kts 199°
2026-05-07 17:54 36.97897 14.57742 5970 ft 261 kts 214°
2026-05-07 17:55 36.96476 14.56363 5464 ft 259 kts 228°
2026-05-07 17:55 36.95296 14.54612 4793 ft 267 kts 232°
2026-05-07 17:55 36.94119 14.52820 4209 ft 272 kts 231°
2026-05-07 17:55 36.92933 14.51029 3985 ft 262 kts 231°
2026-05-07 17:56 36.91799 14.49323 3857 ft 248 kts 231°
2026-05-07 17:56 36.90725 14.47707 3753 ft 236 kts 231°
2026-05-07 17:56 36.89705 14.46173 3639 ft 223 kts 231°
2026-05-07 17:56 36.88737 14.44715 3545 ft 215 kts 231°
2026-05-07 17:57 36.87792 14.43290 3496 ft 212 kts 231°
2026-05-07 17:57 36.87167 14.42346 3467 ft 213 kts 231°
2026-05-07 17:57 36.85900 14.40432 3401 ft 214 kts 230°
2026-05-07 17:57 36.84742 14.39333 3355 ft 215 kts 198°
2026-05-07 17:58 36.83265 14.39332 3305 ft 218 kts 161°
2026-05-07 17:58 36.82090 14.40514 3257 ft 225 kts 120°
2026-05-07 17:58 36.81778 14.42386 3202 ft 223 kts 78°
2026-05-07 17:58 36.82474 14.44058 3159 ft 219 kts 39°
2026-05-07 17:59 36.83806 14.44890 3107 ft 216 kts 14°
2026-05-07 17:59 36.85250 14.45408 3030 ft 216 kts 16°
2026-05-07 17:59 36.86683 14.45957 2932 ft 215 kts 17°
2026-05-07 17:59 36.88107 14.46513 2888 ft 214 kts 17°
2026-05-07 18:00 36.89506 14.47062 2887 ft 214 kts 18°
2026-05-07 18:00 36.90833 14.47861 2885 ft 213 kts 42°
2026-05-07 18:00 36.91776 14.49257 2810 ft 208 kts 51°
2026-05-07 18:00 36.92692 14.50617 2560 ft 198 kts 50°
2026-05-07 18:01 36.93552 14.51888 2308 ft 186 kts 50°
2026-05-07 18:01 36.94356 14.53081 2066 ft 170 kts 50°
2026-05-07 18:01 36.95066 14.54138 1856 ft 149 kts 51°
2026-05-07 18:01 36.95692 14.55071 1672 ft 137 kts 50°
2026-05-07 18:02 36.96856 14.56809 1307 ft 129 kts 51°
2026-05-07 18:02 36.97437 14.57676 1145 ft 131 kts 51°
2026-05-07 18:02 36.98025 14.58554 968 ft 131 kts 51°
2026-05-07 18:03 36.98606 14.59425 805 ft 132 kts 51°
2026-05-07 18:03 36.99165 14.60273 716 ft 114 kts 51°
2026-05-07 18:03 36.99583 14.60881 713 ft 67 kts 50°
2026-05-07 18:03 36.99801 14.61213 713 ft 41 kts 51°
2026-05-07 18:04 36.99992 14.61435 714 ft 36 kts 16°
2026-05-07 18:04 37.00140 14.61393 720 ft 14 kts 238°
2026-05-07 18:04 37.00090 14.61329 722 ft 10 kts 233°
2026-05-07 18:04 37.00044 14.61251 722 ft 12 kts 233°
2026-05-07 18:05 36.99979 14.61158 716 ft 16 kts 229°
2026-05-07 18:05 36.99902 14.61047 715 ft 18 kts 230°
2026-05-07 18:05 36.99821 14.60919 713 ft 17 kts 231°
2026-05-07 18:05 36.99778 14.60858 713 ft 1 kts 228°
2026-05-07 18:06 36.99772 14.60850 715 ft 1 kts 228°
2026-05-07 18:06 36.99765 14.60834 715 ft 2 kts 262°
2026-05-07 18:06 36.99782 14.60813 714 ft 6 kts 318°
2026-05-07 18:06 36.99801 14.60797 715 ft 1 kts 336°
2026-05-07 18:07 36.99811 14.60795 714 ft 1 kts 348°
2026-05-07 18:07 36.99811 14.60794 714 ft 0 kts 348°